This demonstration page uses our WeatherBlox Daily Observations layout. Learn more.

Left ArrowRight Arrow

39.01783, -85.05884

Hourly Observations for November 22, 2021

Temp ( °F °C ) Dew Point ( °F °C ) Humidity (%) Winds ( mph kmh ) Pressure ( in mb ) Visibility ( mi km ) Precip ( " mm )
12:52 am 00:52 Partly Cloudy 43 6.1 38 3.3 82 82 WNW 15 24 30.04 1017 8 13 0.00 0.00
1:52 am 01:52 Partly Cloudy 38 3.3 27 -2.8 65 65 NNW 14 22 30.07 1018 10 16 N/A
2:52 am 02:52 Clear 36 2.2 25 -3.9 64 64 NW 9 15 30.09 1019 10 16 N/A
3:52 am 03:52 Clear 35 1.7 24 -4.4 64 64 NW 10 17 30.11 1020 10 16 N/A
4:52 am 04:52 Partly Cloudy 33 0.6 23 -5 66 66 NW 9 15 30.12 1020 10 16 N/A
5:52 am 05:52 Partly Cloudy 32 undefined 22 -5.6 66 66 NW 8 13 30.13 1020 10 16 N/A
6:52 am 06:52 Mostly Cloudy 30 -1.1 21 -6.1 69 69 NW 5 7 30.14 1021 10 16 N/A
7:52 am 07:52 Mostly Cloudy 30 -1.1 21 -6.1 69 69 W 5 7 30.16 1021 10 16 N/A
8:52 am 08:52 Mostly Cloudy 31 -0.6 20 -6.7 64 64 NW 6 9 30.18 1022 10 16 N/A
9:52 am 09:52 Mostly Cloudy 32 undefined 20 -6.7 61 61 NNW 10 17 30.18 1022 10 16 N/A
10:52 am 10:52 Partly Cloudy 35 1.7 22 -5.6 59 59 NW 13 20 30.19 1023 10 16 N/A
11:52 am 11:52 Partly Cloudy 37 2.8 21 -6.1 52 52 NNW 9 15 30.18 1022 10 16 N/A
12:52 pm 12:52 Partly Cloudy 39 3.9 21 -6.1 48 48 NW 12 19 30.16 1022 10 16 N/A
1:52 pm 13:52 Mostly Sunny 40 4.4 19 -7.2 43 43 NW 13 20 30.14 1021 10 16 N/A
2:52 pm 14:52 Mostly Sunny 41 5 18 -7.8 39 39 WNW 15 24 30.14 1021 10 16 N/A
3:52 pm 15:52 Sunny 39 3.9 15 -9.4 38 38 WNW 17 28 30.15 1021 10 16 N/A
4:52 pm 16:52 Sunny 37 2.8 15 -9.4 41 41 NW 14 22 30.16 1021 10 16 N/A
5:52 pm 17:52 Clear 34 1.1 16 -8.9 48 48 WNW 9 15 30.17 1022 10 16 N/A
6:52 pm 18:52 Clear 32 undefined 16 -8.9 52 52 NW 6 9 30.19 1022 10 16 N/A
7:52 pm 19:52 Clear 30 -1.1 17 -8.3 58 58 WNW 7 11 30.19 1023 10 16 N/A
8:52 pm 20:52 Clear 30 -1.1 16 -8.9 56 56 NW 8 13 30.20 1023 10 16 N/A
9:52 pm 21:52 Clear 29 -1.7 17 -8.3 61 61 WNW 5 7 30.22 1023 10 16 N/A
10:52 pm 22:52 Clear 27 -2.8 17 -8.3 66 66 W 3 6 30.22 1024 10 16 N/A
11:52 pm 23:52 Clear 25 -3.9 17 -8.3 72 72 W 7 11 30.23 1024 10 16 N/A

Powered by AerisWeather